Location: Lubbock
(33.5779°N, 101.8552°W)
Time: 14:06:26
(UTC-05:00)

X-37B - Visible Passes

Search period start: 28 September 2020 00:00
Search period end: 08 October 2020 00:00
Orbit: 386 x 387 km, 45.0° (Epoch: 18 September)

Date Brightness Start Highest point End Pass type
(mag) Time Alt. Az. Time Alt. Az. Time Alt. Az.
28 Sep 3.1 20:56:27 10° S 20:56:47 12° S 20:56:47 12° S visible
29 Sep 3.4 21:33:22 10° SW 21:34:01 15° SW 21:34:01 15° SW visible
30 Sep 1.1 20:35:03 10° SSW 20:38:02 39° SE 20:38:45 33° ESE visible
01 Oct 1.8 21:12:58 10° WSW 21:15:38 41° NW 21:15:38 41° NW visible
02 Oct 0.5 20:14:15 10° SW 20:17:25 89° SSE 20:20:05 14° ENE visible
02 Oct 4.1 21:52:09 10° WNW 21:52:22 11° WNW 21:52:22 11° WNW visible
03 Oct 2.5 20:52:52 10° W 20:55:35 25° NNW 20:56:40 21° N visible
04 Oct 1.6 19:53:51 10° WSW 19:56:54 44° NNW 19:59:57 10° NE visible
04 Oct 3.7 21:32:28 10° NW 21:33:09 12° NNW 21:33:09 12° NNW visible
05 Oct 3.0 20:33:01 10° WNW 20:35:14 17° NNW 20:37:16 11° NNE visible
06 Oct 3.5 21:12:52 10° NNW 21:13:35 11° N 21:13:35 11° N visible
07 Oct 3.2 20:13:20 10° NW 20:14:57 13° NNW 20:16:34 10° NNE visible
